sat.trackr.live / text

‹ back to catalog

STARLINK-1123

NORAD 44930 · 2020-001S

PAYLOAD ACTIVE UNKNOWN

§ Identity

Operator
Country
US
Launch date
2020-01-07
Launch site
AFETR
Launch vehicle
Mass (kg)
RCS (m²)

Purposes: comms

External: N2YO · Heavens-Above · Gunter

§ Orbital elements

Epoch: 2026-05-25T00:53:38.245344Z

Period
92.57 min
Inclination
53.1462°
Eccentricity
0.0002831
Mean motion
15.55599075 rev/d
Perigee alt
398.5 km
Apogee alt
402.3 km
Semi-major
6,778.5 km
B*
1.0507e-3
RAAN
345.1891°
Arg perigee
234.1104°
Mean anomaly
125.9645°
Rev number
35,163

§ Raw data

STARLINK-11231 44930U 20001S   26145.03724821  .00073512  00000+0  10507-2 0  99902 44930  53.1462 345.1891 0002831 234.1104 125.9645 15.55599075351634

JSON: /api/v1/satellites/44930 · /tle

For live sub-satellite position, see the globe view (requires WebGL).

§ Visibility from observer

Set your observer location to see the next 7 days of passes ≥ 10°. The values pass through the URL so the page stays shareable.

No JS? Fill the form by hand. The geolocation button needs JavaScript.